Time,TemperatureF,DewpointF,PressureIn,WindDirection,WindDirectionDegrees,WindSpeedMPH,WindSpeedGustMPH,Humidity,HourlyPrecipIn,Conditions,Clouds,dailyrainin,SoftwareType,DateUTC
2013-05-27 00:01:00,78.2,73.0,30.03,SE,137,3.0,16.0,84,0.00,,---,0.00,VWS V14.01,2013-05-27 05:01:00,
2013-05-27 00:06:00,78.3,73.4,30.04,SE,124,5.0,11.0,85,0.00,,---,0.00,VWS V14.01,2013-05-27 05:06:00,
2013-05-27 00:11:00,78.2,73.3,30.04,WSW,240,4.0,14.0,85,0.00,,---,0.00,VWS V14.01,2013-05-27 05:11:00,
2013-05-27 00:16:00,78.2,73.3,30.04,East,90,5.0,14.0,85,0.00,,---,0.00,VWS V14.01,2013-05-27 05:16:00,
2013-05-27 00:21:00,78.2,73.3,30.04,SSE,160,3.0,14.0,85,0.00,,---,0.00,VWS V14.01,2013-05-27 05:21:00,
2013-05-27 00:26:00,78.2,73.3,30.04,SSE,148,7.0,14.0,85,0.00,,---,0.00,VWS V14.01,2013-05-27 05:26:00,
2013-05-27 00:31:00,78.2,73.3,30.04,ESE,120,3.0,14.0,85,0.00,,---,0.00,VWS V14.01,2013-05-27 05:31:00,
2013-05-27 00:36:00,78.2,73.3,30.04,ESE,113,4.0,14.0,85,0.00,,---,0.00,VWS V14.01,2013-05-27 05:36:00,
2013-05-27 00:41:00,78.2,73.3,30.04,ESE,116,8.0,14.0,85,0.00,,---,0.00,VWS V14.01,2013-05-27 05:41:00,
2013-05-27 00:46:00,78.2,73.3,30.04,ESE,117,10.0,14.0,85,0.00,,---,0.00,VWS V14.01,2013-05-27 05:46:00,
2013-05-27 00:51:00,78.3,73.8,30.04,SE,141,11.0,14.0,86,0.00,,---,0.00,VWS V14.01,2013-05-27 05:51:00,
2013-05-27 00:56:00,78.3,73.8,30.03,SE,139,4.0,15.0,86,0.00,,---,0.00,VWS V14.01,2013-05-27 05:56:00,
2013-05-27 01:01:00,78.3,73.4,30.03,East,90,10.0,15.0,85,0.00,,---,0.00,VWS V14.01,2013-05-27 06:01:00,
2013-05-27 01:06:00,78.4,73.9,30.03,ESE,117,10.0,14.0,86,0.00,,---,0.00,VWS V14.01,2013-05-27 06:06:00,
2013-05-27 01:11:00,78.3,73.8,30.03,SE,141,7.0,14.0,86,0.00,,---,0.00,VWS V14.01,2013-05-27 06:11:00,
2013-05-27 01:16:00,78.2,73.7,30.03,SE,134,10.0,15.0,86,0.00,,---,0.00,VWS V14.01,2013-05-27 06:16:00,
2013-05-27 01:21:00,78.2,73.7,30.03,SSW,193,4.0,15.0,86,0.00,,---,0.00,VWS V14.01,2013-05-27 06:21:00,
2013-05-27 01:26:00,78.1,73.9,30.02,ESE,105,4.0,15.0,87,0.00,,---,0.00,VWS V14.01,2013-05-27 06:26:00,
2013-05-27 01:31:00,78.1,73.9,30.03,SE,125,10.0,15.0,87,0.00,,---,0.00,VWS V14.01,2013-05-27 06:31:00,
2013-05-27 01:36:00,78.1,73.9,30.03,ESE,105,6.0,15.0,87,0.00,,---,0.00,VWS V14.01,2013-05-27 06:36:00,
2013-05-27 01:41:00,78.0,73.5,30.03,SSE,155,9.0,15.0,86,0.00,,---,0.00,VWS V14.01,2013-05-27 06:41:00,
2013-05-27 01:46:00,78.1,73.9,30.03,East,89,6.0,15.0,87,0.00,,---,0.00,VWS V14.01,2013-05-27 06:46:00,
2013-05-27 01:51:00,78.1,73.6,30.03,ESE,115,4.0,15.0,86,0.00,,---,0.00,VWS V14.01,2013-05-27 06:51:00,
2013-05-27 01:56:00,78.1,73.6,30.03,SE,136,12.0,15.0,86,0.00,,---,0.00,VWS V14.01,2013-05-27 06:56:00,
2013-05-27 02:01:00,78.2,74.0,30.03,SE,143,6.0,15.0,87,0.00,,---,0.00,VWS V14.01,2013-05-27 07:01:00,
2013-05-27 02:06:00,78.2,73.7,30.03,East,95,10.0,13.0,86,0.00,,---,0.00,VWS V14.01,2013-05-27 07:06:00,
2013-05-27 02:11:00,78.2,73.7,30.02,SE,139,10.0,14.0,86,0.00,,---,0.00,VWS V14.01,2013-05-27 07:11:00,
2013-05-27 02:16:00,78.2,73.7,30.02,South,176,10.0,14.0,86,0.00,,---,0.00,VWS V14.01,2013-05-27 07:16:00,
2013-05-27 02:21:00,78.2,73.7,30.02,SSE,150,14.0,15.0,86,0.00,,---,0.00,VWS V14.01,2013-05-27 07:21:00,
2013-05-27 02:26:00,78.2,73.3,30.02,ESE,114,10.0,16.0,85,0.00,,---,0.00,VWS V14.01,2013-05-27 07:26:00,
2013-05-27 02:31:00,78.2,73.7,30.02,South,191,5.0,16.0,86,0.00,,---,0.00,VWS V14.01,2013-05-27 07:31:00,
2013-05-27 02:36:00,78.1,73.2,30.01,SSE,148,13.0,16.0,85,0.00,,---,0.00,VWS V14.01,2013-05-27 07:36:00,
2013-05-27 02:41:00,78.0,73.1,30.01,SE,145,8.0,16.0,85,0.00,,---,0.00,VWS V14.01,2013-05-27 07:41:00,
2013-05-27 02:46:00,78.1,73.2,30.01,SSE,153,5.0,16.0,85,0.00,,---,0.00,VWS V14.01,2013-05-27 07:46:00,
2013-05-27 02:51:00,78.1,73.2,30.01,SSW,197,9.0,16.0,85,0.00,,---,0.00,VWS V14.01,2013-05-27 07:51:00,
2013-05-27 02:56:00,78.1,73.6,30.01,SE,141,10.0,16.0,86,0.00,,---,0.00,VWS V14.01,2013-05-27 07:56:00,
2013-05-27 03:01:00,78.1,73.6,30.01,South,174,10.0,16.0,86,0.00,,---,0.00,VWS V14.01,2013-05-27 08:01:00,
2013-05-27 03:06:00,78.1,73.6,30.01,SE,143,8.0,14.0,86,0.00,,---,0.00,VWS V14.01,2013-05-27 08:06:00,
2013-05-27 03:11:00,78.0,73.1,30.01,South,169,8.0,14.0,85,0.00,,---,0.00,VWS V14.01,2013-05-27 08:11:00,
2013-05-27 03:16:00,78.0,73.1,30.01,SE,124,7.0,14.0,85,0.00,,---,0.00,VWS V14.01,2013-05-27 08:16:00,
2013-05-27 03:21:00,77.9,73.4,30.01,SSW,193,6.0,14.0,86,0.00,,---,0.00,VWS V14.01,2013-05-27 08:21:00,
2013-05-27 03:26:00,77.9,73.4,30.01,South,169,6.0,14.0,86,0.00,,---,0.00,VWS V14.01,2013-05-27 08:26:00,
2013-05-27 03:31:00,78.0,73.5,30.01,SSE,162,8.0,15.0,86,0.00,,---,0.00,VWS V14.01,2013-05-27 08:31:00,
2013-05-27 03:36:00,78.0,73.1,30.01,SE,133,12.0,15.0,85,0.00,,---,0.00,VWS V14.01,2013-05-27 08:36:00,
2013-05-27 03:41:00,77.9,73.0,30.01,South,191,6.0,15.0,85,0.00,,---,0.00,VWS V14.01,2013-05-27 08:41:00,
2013-05-27 03:46:00,77.8,72.9,30.01,ESE,118,12.0,15.0,85,0.00,,---,0.00,VWS V14.01,2013-05-27 08:46:00,
2013-05-27 03:51:00,77.8,72.9,30.01,South,173,9.0,15.0,85,0.00,,---,0.00,VWS V14.01,2013-05-27 08:51:00,
2013-05-27 03:56:00,77.8,73.3,30.01,SE,145,7.0,15.0,86,0.00,,---,0.00,VWS V14.01,2013-05-27 08:56:00,
2013-05-27 04:01:00,77.7,73.2,30.01,South,186,7.0,15.0,86,0.00,,---,0.00,VWS V14.01,2013-05-27 09:01:00,
2013-05-27 04:06:00,77.7,73.2,30.00,SSE,155,9.0,11.0,86,0.00,,---,0.00,VWS V14.01,2013-05-27 09:06:00,
2013-05-27 04:11:00,77.7,73.5,30.00,SSE,160,9.0,12.0,87,0.00,,---,0.00,VWS V14.01,2013-05-27 09:11:00,
2013-05-27 04:16:00,77.7,73.5,30.00,SSE,149,5.0,12.0,87,0.00,,---,0.00,VWS V14.01,2013-05-27 09:16:00,
2013-05-27 04:21:00,77.6,73.4,30.00,SE,127,5.0,13.0,87,0.00,,---,0.00,VWS V14.01,2013-05-27 09:21:00,
2013-05-27 04:26:00,77.6,73.4,30.00,SE,133,5.0,15.0,87,0.00,,---,0.00,VWS V14.01,2013-05-27 09:26:00,
2013-05-27 04:31:00,77.7,73.5,30.00,SE,131,6.0,15.0,87,0.00,,---,0.00,VWS V14.01,2013-05-27 09:31:00,
2013-05-27 04:36:00,77.7,73.5,30.00,SSE,151,9.0,15.0,87,0.00,,---,0.00,VWS V14.01,2013-05-27 09:36:00,
2013-05-27 04:41:00,77.8,74.0,30.00,SE,139,7.0,15.0,88,0.00,,---,0.00,VWS V14.01,2013-05-27 09:41:00,
2013-05-27 04:46:00,77.8,73.6,30.00,SSE,155,9.0,15.0,87,0.00,,---,0.00,VWS V14.01,2013-05-27 09:46:00,
2013-05-27 04:51:00,77.9,73.7,30.00,SSE,166,11.0,15.0,87,0.00,,---,0.00,VWS V14.01,2013-05-27 09:51:00,
2013-05-27 04:56:00,77.8,73.6,30.00,SSW,195,7.0,15.0,87,0.00,,---,0.00,VWS V14.01,2013-05-27 09:56:00,
2013-05-27 05:01:00,77.8,73.6,30.00,South,174,9.0,15.0,87,0.00,,---,0.00,VWS V14.01,2013-05-27 10:01:00,
2013-05-27 05:06:00,77.8,73.6,30.00,South,181,7.0,12.0,87,0.00,,---,0.00,VWS V14.01,2013-05-27 10:06:00,
2013-05-27 05:11:00,77.7,73.9,29.99,SSE,155,7.0,12.0,88,0.00,,---,0.00,VWS V14.01,2013-05-27 10:11:00,
2013-05-27 05:16:00,77.7,73.9,29.99,SE,146,8.0,13.0,88,0.00,,---,0.00,VWS V14.01,2013-05-27 10:16:00,
2013-05-27 05:21:00,77.7,73.9,29.99,SSE,149,10.0,13.0,88,0.00,,---,0.00,VWS V14.01,2013-05-27 10:21:00,
2013-05-27 05:26:00,77.8,74.0,29.99,SSW,212,7.0,16.0,88,0.00,,---,0.00,VWS V14.01,2013-05-27 10:26:00,
2013-05-27 05:31:00,77.9,73.7,29.99,SE,127,6.0,17.0,87,0.00,,---,0.00,VWS V14.01,2013-05-27 10:31:00,
2013-05-27 05:36:00,77.9,73.7,29.99,SE,145,10.0,17.0,87,0.00,,---,0.00,VWS V14.01,2013-05-27 10:36:00,
2013-05-27 05:41:00,78.0,74.2,29.99,SE,139,8.0,17.0,88,0.00,,---,0.00,VWS V14.01,2013-05-27 10:41:00,
2013-05-27 05:46:00,77.9,74.1,29.99,SSE,165,8.0,17.0,88,0.00,,---,0.00,VWS V14.01,2013-05-27 10:46:00,
2013-05-27 05:51:00,77.9,74.1,29.99,South,187,3.0,17.0,88,0.00,,---,0.00,VWS V14.01,2013-05-27 10:51:00,
2013-05-27 05:56:00,77.9,74.1,29.99,SE,133,7.0,17.0,88,0.00,,---,0.00,VWS V14.01,2013-05-27 10:56:00,
2013-05-27 06:01:00,77.9,74.1,29.99,SE,135,7.0,17.0,88,0.00,,---,0.00,VWS V14.01,2013-05-27 11:01:00,
2013-05-27 06:06:00,77.9,74.1,29.99,SE,133,4.0,12.0,88,0.00,,---,0.00,VWS V14.01,2013-05-27 11:06:00,
2013-05-27 06:11:00,77.9,74.4,30.00,SE,142,9.0,12.0,89,0.00,,---,0.00,VWS V14.01,2013-05-27 11:11:00,
2013-05-27 06:16:00,77.8,74.3,30.00,SSE,155,6.0,12.0,89,0.00,,---,0.00,VWS V14.01,2013-05-27 11:16:00,
2013-05-27 06:21:00,77.8,74.3,30.00,SE,146,3.0,12.0,89,0.00,,---,0.00,VWS V14.01,2013-05-27 11:21:00,
2013-05-27 06:26:00,77.9,74.4,30.00,South,169,6.0,12.0,89,0.00,,---,0.00,VWS V14.01,2013-05-27 11:26:00,
2013-05-27 06:31:00,77.9,74.4,30.00,ESE,103,13.0,13.0,89,0.00,,---,0.00,VWS V14.01,2013-05-27 11:31:00,
2013-05-27 06:36:00,78.0,74.5,30.00,East,83,6.0,15.0,89,0.00,,---,0.00,VWS V14.01,2013-05-27 11:36:00,
2013-05-27 06:41:00,78.1,74.6,30.00,SSE,149,7.0,15.0,89,0.00,,---,0.00,VWS V14.01,2013-05-27 11:41:00,
2013-05-27 06:46:00,78.0,74.2,30.00,SSE,164,11.0,15.0,88,0.00,,---,0.00,VWS V14.01,2013-05-27 11:46:00,
2013-05-27 06:51:00,78.0,74.2,30.00,SSE,159,6.0,15.0,88,0.00,,---,0.00,VWS V14.01,2013-05-27 11:51:00,
2013-05-27 06:56:00,78.1,74.6,30.00,SSE,149,7.0,15.0,89,0.00,,---,0.00,VWS V14.01,2013-05-27 11:56:00,
2013-05-27 07:01:00,78.1,74.6,30.00,SSE,150,11.0,15.0,89,0.00,,---,0.00,VWS V14.01,2013-05-27 12:01:00,
2013-05-27 07:06:00,78.1,74.6,30.00,SSE,148,7.0,13.0,89,0.00,,---,0.00,VWS V14.01,2013-05-27 12:06:00,
2013-05-27 07:11:00,78.2,74.7,30.00,SSE,162,13.0,13.0,89,0.00,,---,0.00,VWS V14.01,2013-05-27 12:11:00,
2013-05-27 07:16:00,78.5,75.0,30.00,SE,133,6.0,13.0,89,0.00,,---,0.00,VWS V14.01,2013-05-27 12:16:00,
2013-05-27 07:21:00,78.5,74.7,30.00,South,180,6.0,13.0,88,0.00,,---,0.00,VWS V14.01,2013-05-27 12:21:00,
2013-05-27 07:26:00,78.5,74.7,30.00,SSE,163,3.0,13.0,88,0.00,,---,0.00,VWS V14.01,2013-05-27 12:26:00,
2013-05-27 07:31:00,78.5,74.7,30.00,ESE,117,9.0,13.0,88,0.00,,---,0.00,VWS V14.01,2013-05-27 12:31:00,
2013-05-27 07:36:00,78.5,74.7,30.00,SSE,153,9.0,13.0,88,0.00,,---,0.00,VWS V14.01,2013-05-27 12:36:00,
2013-05-27 07:41:00,78.5,74.7,30.01,SSE,150,5.0,13.0,88,0.00,,---,0.00,VWS V14.01,2013-05-27 12:41:00,
2013-05-27 07:46:00,78.6,74.8,30.01,ESE,116,5.0,13.0,88,0.00,,---,0.00,VWS V14.01,2013-05-27 12:46:00,
2013-05-27 07:51:00,78.6,74.8,30.00,SE,134,13.0,13.0,88,0.00,,---,0.00,VWS V14.01,2013-05-27 12:51:00,
2013-05-27 07:56:00,78.7,74.8,30.01,SSE,159,7.0,14.0,88,0.00,,---,0.00,VWS V14.01,2013-05-27 12:56:00,
2013-05-27 08:01:00,78.9,75.1,30.01,SE,137,9.0,17.0,88,0.00,,---,0.00,VWS V14.01,2013-05-27 13:01:00,
2013-05-27 08:06:00,79.2,75.3,30.01,SSE,147,4.0,12.0,88,0.00,,---,0.00,VWS V14.01,2013-05-27 13:06:00,
2013-05-27 08:11:00,79.4,75.2,30.01,South,183,9.0,13.0,87,0.00,,---,0.00,VWS V14.01,2013-05-27 13:11:00,
2013-05-27 08:16:00,79.4,75.2,30.01,SSE,167,8.0,13.0,87,0.00,,---,0.00,VWS V14.01,2013-05-27 13:16:00,
2013-05-27 08:21:00,79.5,75.3,30.01,South,177,9.0,13.0,87,0.00,,---,0.00,VWS V14.01,2013-05-27 13:21:00,
2013-05-27 08:26:00,79.4,75.2,30.01,ESE,111,4.0,13.0,87,0.00,,---,0.00,VWS V14.01,2013-05-27 13:26:00,
2013-05-27 08:31:00,79.7,75.2,30.01,SE,142,6.0,13.0,86,0.00,,---,0.00,VWS V14.01,2013-05-27 13:31:00,
2013-05-27 08:36:00,80.1,75.5,30.01,South,174,7.0,15.0,86,0.00,,---,0.00,VWS V14.01,2013-05-27 13:36:00,
2013-05-27 08:41:00,80.2,75.3,30.01,SE,126,7.0,15.0,85,0.00,,---,0.00,VWS V14.01,2013-05-27 13:41:00,
2013-05-27 08:46:00,80.4,75.5,30.02,SE,126,4.0,15.0,85,0.00,,---,0.00,VWS V14.01,2013-05-27 13:46:00,
2013-05-27 08:51:00,80.1,75.2,30.02,SE,128,7.0,15.0,85,0.00,,---,0.00,VWS V14.01,2013-05-27 13:51:00,
2013-05-27 08:56:00,80.0,75.1,30.02,ESE,119,13.0,15.0,85,0.00,,---,0.00,VWS V14.01,2013-05-27 13:56:00,
2013-05-27 09:01:00,79.8,75.2,30.02,SSE,148,10.0,15.0,86,0.00,,---,0.00,VWS V14.01,2013-05-27 14:01:00,
2013-05-27 09:06:00,80.0,75.4,30.02,SE,131,9.0,12.0,86,0.00,,---,0.00,VWS V14.01,2013-05-27 14:06:00,
2013-05-27 09:11:00,80.2,75.6,30.03,SE,129,5.0,12.0,86,0.00,,---,0.00,VWS V14.01,2013-05-27 14:11:00,
2013-05-27 09:16:00,80.1,75.5,30.03,SSE,156,5.0,12.0,86,0.00,,---,0.00,VWS V14.01,2013-05-27 14:16:00,
2013-05-27 09:21:00,80.8,76.2,30.03,SSE,150,7.0,12.0,86,0.00,,---,0.00,VWS V14.01,2013-05-27 14:21:00,
2013-05-27 09:26:00,81.1,75.8,30.03,SE,139,12.0,13.0,84,0.00,,---,0.00,VWS V14.01,2013-05-27 14:26:00,
2013-05-27 09:31:00,81.3,75.7,30.03,SE,132,5.0,14.0,83,0.00,,---,0.00,VWS V14.01,2013-05-27 14:31:00,
2013-05-27 09:36:00,81.1,75.8,30.03,SSE,159,8.0,14.0,84,0.00,,---,0.00,VWS V14.01,2013-05-27 14:36:00,
2013-05-27 09:41:00,81.2,75.6,30.03,South,183,9.0,14.0,83,0.00,,---,0.00,VWS V14.01,2013-05-27 14:41:00,
2013-05-27 09:46:00,81.6,75.9,30.03,SSE,160,4.0,14.0,83,0.00,,---,0.00,VWS V14.01,2013-05-27 14:46:00,
2013-05-27 09:51:00,81.5,76.2,30.03,SSE,149,10.0,14.0,84,0.00,,---,0.00,VWS V14.01,2013-05-27 14:51:00,
2013-05-27 09:56:00,81.6,75.9,30.04,SSE,148,9.0,15.0,83,0.00,,---,0.00,VWS V14.01,2013-05-27 14:56:00,
2013-05-27 10:01:00,81.7,76.0,30.03,SE,146,6.0,15.0,83,0.00,,---,0.00,VWS V14.01,2013-05-27 15:01:00,
2013-05-27 10:06:00,81.8,75.8,30.03,South,190,10.0,15.0,82,0.00,,---,0.00,VWS V14.01,2013-05-27 15:06:00,
2013-05-27 10:11:00,82.1,76.4,30.03,SSE,155,11.0,16.0,83,0.00,,---,0.00,VWS V14.01,2013-05-27 15:11:00,
2013-05-27 10:16:00,82.1,76.1,30.03,SE,143,13.0,16.0,82,0.00,,---,0.00,VWS V14.01,2013-05-27 15:16:00,
2013-05-27 10:21:00,81.9,75.9,30.04,SE,146,12.0,16.0,82,0.00,,---,0.00,VWS V14.01,2013-05-27 15:21:00,
2013-05-27 10:26:00,81.6,75.9,30.04,SE,138,8.0,16.0,83,0.00,,---,0.00,VWS V14.01,2013-05-27 15:26:00,
2013-05-27 10:31:00,81.7,75.7,30.03,SSE,152,11.0,16.0,82,0.00,,---,0.00,VWS V14.01,2013-05-27 15:31:00,
2013-05-27 10:36:00,82.1,76.4,30.04,South,173,10.0,16.0,83,0.00,,---,0.00,VWS V14.01,2013-05-27 15:36:00,
2013-05-27 10:41:00,81.9,76.2,30.04,SSE,162,11.0,16.0,83,0.00,,---,0.00,VWS V14.01,2013-05-27 15:41:00,
2013-05-27 10:46:00,81.7,76.0,30.04,SSE,155,12.0,16.0,83,0.00,,---,0.00,VWS V14.01,2013-05-27 15:46:00,
2013-05-27 10:51:00,81.5,76.2,30.04,SSE,156,8.0,16.0,84,0.00,,---,0.00,VWS V14.01,2013-05-27 15:51:00,
2013-05-27 10:56:00,81.4,75.7,30.04,South,182,7.0,16.0,83,0.00,,---,0.00,VWS V14.01,2013-05-27 15:56:00,
2013-05-27 11:01:00,81.2,75.6,30.04,South,173,2.0,16.0,83,0.00,,---,0.00,VWS V14.01,2013-05-27 16:01:00,
2013-05-27 11:06:00,81.2,75.9,30.03,SSE,165,12.0,15.0,84,0.00,,---,0.00,VWS V14.01,2013-05-27 16:06:00,
2013-05-27 11:11:00,81.3,75.7,30.03,SSE,167,13.0,15.0,83,0.00,,---,0.00,VWS V14.01,2013-05-27 16:11:00,
2013-05-27 11:16:00,81.0,75.3,30.03,SSE,167,16.0,16.0,83,0.00,,---,0.00,VWS V14.01,2013-05-27 16:16:00,
2013-05-27 11:21:00,81.4,76.1,30.03,SE,141,15.0,16.0,84,0.00,,---,0.00,VWS V14.01,2013-05-27 16:21:00,
2013-05-27 11:26:00,82.1,75.7,30.03,South,191,8.0,19.0,81,0.00,,---,0.00,VWS V14.01,2013-05-27 16:26:00,
2013-05-27 11:31:00,82.6,75.8,30.03,SSE,153,15.0,20.0,80,0.00,,---,0.00,VWS V14.01,2013-05-27 16:31:00,
2013-05-27 11:36:00,82.3,74.8,30.03,SSE,148,9.0,20.0,78,0.00,,---,0.00,VWS V14.01,2013-05-27 16:36:00,
2013-05-27 11:41:00,82.3,75.5,30.03,South,172,15.0,20.0,80,0.00,,---,0.00,VWS V14.01,2013-05-27 16:41:00,
2013-05-27 11:46:00,82.5,75.3,30.03,SSE,159,7.0,20.0,79,0.00,,---,0.00,VWS V14.01,2013-05-27 16:46:00,
2013-05-27 11:51:00,82.8,75.2,30.03,SSE,157,11.0,20.0,78,0.00,,---,0.00,VWS V14.01,2013-05-27 16:51:00,
2013-05-27 11:56:00,82.6,75.4,30.02,SSE,167,5.0,20.0,79,0.00,,---,0.00,VWS V14.01,2013-05-27 16:56:00,
2013-05-27 12:01:00,82.8,75.6,30.02,SE,132,8.0,20.0,79,0.00,,---,0.00,VWS V14.01,2013-05-27 17:01:00,
2013-05-27 12:06:00,82.7,75.2,30.02,SSE,152,6.0,17.0,78,0.00,,---,0.00,VWS V14.01,2013-05-27 17:06:00,
2013-05-27 12:11:00,82.8,75.6,30.03,SE,129,11.0,17.0,79,0.00,,---,0.00,VWS V14.01,2013-05-27 17:11:00,
2013-05-27 12:16:00,83.0,75.8,30.03,SSW,211,10.0,18.0,79,0.00,,---,0.00,VWS V14.01,2013-05-27 17:16:00,
2013-05-27 12:21:00,82.8,75.2,30.03,SSE,158,6.0,18.0,78,0.00,,---,0.00,VWS V14.01,2013-05-27 17:21:00,
2013-05-27 12:26:00,82.6,75.4,30.03,SSW,211,8.0,18.0,79,0.00,,---,0.00,VWS V14.01,2013-05-27 17:26:00,
2013-05-27 12:32:00,83.0,76.6,30.03,SSE,167,8.0,18.0,81,0.00,,---,0.00,VWS V14.01,2013-05-27 17:32:00,
2013-05-27 12:37:00,83.0,75.8,30.03,South,169,7.0,18.0,79,0.00,,---,0.00,VWS V14.01,2013-05-27 17:37:00,
2013-05-27 12:42:00,82.5,75.3,30.03,SSW,201,7.0,18.0,79,0.00,,---,0.00,VWS V14.01,2013-05-27 17:42:00,
2013-05-27 12:47:00,82.2,75.4,30.03,South,169,3.0,18.0,80,0.00,,---,0.00,VWS V14.01,2013-05-27 17:47:00,
2013-05-27 12:52:00,82.1,75.3,30.03,SE,132,6.0,18.0,80,0.00,,---,0.00,VWS V14.01,2013-05-27 17:52:00,
2013-05-27 12:57:00,82.2,75.4,30.02,SSE,150,10.0,18.0,80,0.00,,---,0.00,VWS V14.01,2013-05-27 17:57:00,
2013-05-27 13:02:00,82.4,75.6,30.03,South,170,8.0,18.0,80,0.00,,---,0.00,VWS V14.01,2013-05-27 18:02:00,
2013-05-27 13:07:00,82.7,75.9,30.02,SSE,165,11.0,17.0,80,0.00,,---,0.00,VWS V14.01,2013-05-27 18:07:00,
2013-05-27 13:12:00,82.7,76.3,30.02,SE,139,7.0,17.0,81,0.00,,---,0.00,VWS V14.01,2013-05-27 18:12:00,
2013-05-27 13:17:00,82.8,76.4,30.02,SE,130,9.0,17.0,81,0.00,,---,0.00,VWS V14.01,2013-05-27 18:17:00,
2013-05-27 13:22:00,82.4,76.4,30.02,SE,132,10.0,17.0,82,0.00,,---,0.00,VWS V14.01,2013-05-27 18:22:00,
2013-05-27 13:27:00,82.1,76.1,30.02,SE,142,6.0,17.0,82,0.00,,---,0.00,VWS V14.01,2013-05-27 18:27:00,
2013-05-27 13:32:00,82.2,76.2,30.02,SE,131,10.0,17.0,82,0.00,,---,0.00,VWS V14.01,2013-05-27 18:32:00,
2013-05-27 13:37:00,82.2,75.8,30.02,SSE,165,6.0,17.0,81,0.00,,---,0.00,VWS V14.01,2013-05-27 18:37:00,
2013-05-27 13:42:00,82.3,75.5,30.01,SE,139,11.0,17.0,80,0.00,,---,0.00,VWS V14.01,2013-05-27 18:42:00,
2013-05-27 13:47:00,82.6,75.8,30.01,SE,139,9.0,17.0,80,0.00,,---,0.00,VWS V14.01,2013-05-27 18:47:00,
2013-05-27 13:52:00,82.3,75.9,30.01,SE,132,7.0,19.0,81,0.00,,---,0.00,VWS V14.01,2013-05-27 18:52:00,
2013-05-27 13:57:00,82.4,76.4,30.00,SE,127,19.0,19.0,82,0.00,,---,0.00,VWS V14.01,2013-05-27 18:57:00,
2013-05-27 14:02:00,82.5,76.1,30.01,ESE,111,7.0,19.0,81,0.00,,---,0.00,VWS V14.01,2013-05-27 19:02:00,
2013-05-27 14:07:00,82.7,75.9,30.00,SE,146,8.0,19.0,80,0.00,,---,0.00,VWS V14.01,2013-05-27 19:07:00,
2013-05-27 14:12:00,82.6,75.8,30.00,SE,137,9.0,19.0,80,0.00,,---,0.00,VWS V14.01,2013-05-27 19:12:00,
2013-05-27 14:17:00,82.6,76.2,30.00,SE,143,8.0,19.0,81,0.00,,---,0.00,VWS V14.01,2013-05-27 19:17:00,
2013-05-27 14:22:00,82.9,76.1,30.00,SE,126,8.0,19.0,80,0.00,,---,0.00,VWS V14.01,2013-05-27 19:22:00,
2013-05-27 14:27:00,82.9,75.7,30.00,South,177,14.0,19.0,79,0.00,,---,0.00,VWS V14.01,2013-05-27 19:27:00,
2013-05-27 14:32:00,83.0,75.8,30.00,SE,134,10.0,19.0,79,0.00,,---,0.00,VWS V14.01,2013-05-27 19:32:00,
2013-05-27 14:37:00,82.9,75.3,29.99,SE,143,18.0,19.0,78,0.00,,---,0.00,VWS V14.01,2013-05-27 19:37:00,
2013-05-27 14:42:00,82.7,74.8,29.99,SE,139,10.0,20.0,77,0.00,,---,0.00,VWS V14.01,2013-05-27 19:42:00,
2013-05-27 14:47:00,83.0,75.4,29.99,SSE,155,13.0,20.0,78,0.00,,---,0.00,VWS V14.01,2013-05-27 19:47:00,
2013-05-27 14:52:00,83.2,75.6,29.99,SW,225,5.0,20.0,78,0.00,,---,0.00,VWS V14.01,2013-05-27 19:52:00,
2013-05-27 14:57:00,83.0,75.1,29.99,SE,141,13.0,20.0,77,0.00,,---,0.00,VWS V14.01,2013-05-27 19:57:00,
2013-05-27 15:02:00,82.5,74.9,29.98,South,177,14.0,16.0,78,0.00,,---,0.00,VWS V14.01,2013-05-27 20:02:00,
2013-05-27 15:07:00,82.4,74.9,29.98,SSE,159,5.0,17.0,78,0.00,,---,0.00,VWS V14.01,2013-05-27 20:07:00,
2013-05-27 15:12:00,82.4,74.9,29.98,SE,136,10.0,19.0,78,0.00,,---,0.00,VWS V14.01,2013-05-27 20:12:00,
2013-05-27 15:17:00,82.6,75.1,29.98,South,180,9.0,19.0,78,0.00,,---,0.00,VWS V14.01,2013-05-27 20:17:00,
2013-05-27 15:22:00,82.7,74.4,29.98,South,172,7.0,19.0,76,0.00,,---,0.00,VWS V14.01,2013-05-27 20:22:00,
2013-05-27 15:27:00,82.7,74.4,29.98,SE,142,11.0,19.0,76,0.00,,---,0.00,VWS V14.01,2013-05-27 20:27:00,
2013-05-27 15:32:00,82.4,74.5,29.98,SSE,162,10.0,19.0,77,0.00,,---,0.00,VWS V14.01,2013-05-27 20:32:00,
2013-05-27 15:37:00,82.5,74.2,29.97,SE,146,8.0,19.0,76,0.00,,---,0.00,VWS V14.01,2013-05-27 20:37:00,
2013-05-27 15:42:00,82.8,74.5,29.97,SSE,159,9.0,19.0,76,0.00,,---,0.00,VWS V14.01,2013-05-27 20:42:00,
2013-05-27 15:47:00,82.8,74.9,29.97,SE,144,10.0,19.0,77,0.00,,---,0.00,VWS V14.01,2013-05-27 20:47:00,
2013-05-27 15:52:00,82.4,74.1,29.97,SSE,155,10.0,19.0,76,0.00,,---,0.00,VWS V14.01,2013-05-27 20:52:00,
2013-05-27 15:57:00,82.7,75.2,29.97,ESE,122,10.0,19.0,78,0.00,,---,0.00,VWS V14.01,2013-05-27 20:57:00,
2013-05-27 16:02:00,82.6,74.3,29.97,SE,145,6.0,10.0,76,0.00,,---,0.00,VWS V14.01,2013-05-27 21:02:00,
2013-05-27 16:07:00,82.7,75.5,29.97,SE,137,9.0,14.0,79,0.00,,---,0.00,VWS V14.01,2013-05-27 21:07:00,
2013-05-27 16:12:00,83.0,75.1,29.97,SE,145,4.0,18.0,77,0.00,,---,0.00,VWS V14.01,2013-05-27 21:12:00,
2013-05-27 16:17:00,83.0,75.4,29.96,SSE,150,8.0,18.0,78,0.00,,---,0.00,VWS V14.01,2013-05-27 21:17:00,
2013-05-27 16:22:00,83.0,75.4,29.97,South,169,10.0,18.0,78,0.00,,---,0.00,VWS V14.01,2013-05-27 21:22:00,
2013-05-27 16:27:00,82.5,74.9,29.97,SE,139,4.0,18.0,78,0.00,,---,0.00,VWS V14.01,2013-05-27 21:27:00,
2013-05-27 16:32:00,82.5,74.9,29.96,SSE,162,6.0,18.0,78,0.00,,---,0.00,VWS V14.01,2013-05-27 21:32:00,
2013-05-27 16:37:00,82.3,74.4,29.96,South,179,13.0,18.0,77,0.00,,---,0.00,VWS V14.01,2013-05-27 21:37:00,
2013-05-27 16:42:00,82.2,74.7,29.96,SE,124,12.0,18.0,78,0.00,,---,0.00,VWS V14.01,2013-05-27 21:42:00,
2013-05-27 16:47:00,81.9,74.8,29.96,SSE,162,7.0,18.0,79,0.00,,---,0.00,VWS V14.01,2013-05-27 21:47:00,
2013-05-27 16:52:00,82.1,74.9,29.96,SSE,162,13.0,18.0,79,0.00,,---,0.00,VWS V14.01,2013-05-27 21:52:00,
2013-05-27 16:57:00,81.9,74.8,29.95,SE,127,7.0,18.0,79,0.00,,---,0.00,VWS V14.01,2013-05-27 21:57:00,
2013-05-27 17:02:00,82.4,75.2,29.95,SSE,167,16.0,16.0,79,0.00,,---,0.00,VWS V14.01,2013-05-27 22:02:00,
2013-05-27 17:07:00,82.3,74.8,29.95,ESE,103,6.0,17.0,78,0.00,,---,0.00,VWS V14.01,2013-05-27 22:07:00,
2013-05-27 17:13:00,82.0,74.1,29.95,SSE,148,10.0,17.0,77,0.00,,---,0.00,VWS V14.01,2013-05-27 22:13:00,
2013-05-27 17:18:00,82.3,75.1,29.95,SE,143,8.0,17.0,79,0.00,,---,0.00,VWS V14.01,2013-05-27 22:18:00,
2013-05-27 17:23:00,82.4,74.5,29.95,South,172,8.0,17.0,77,0.00,,---,0.00,VWS V14.01,2013-05-27 22:23:00,
2013-05-27 17:28:00,82.0,74.8,29.94,SSE,150,6.0,17.0,79,0.00,,---,0.00,VWS V14.01,2013-05-27 22:28:00,
2013-05-27 17:32:00,82.1,75.3,29.94,SSE,159,8.0,17.0,80,0.00,,---,0.00,VWS V14.01,2013-05-27 22:32:00,
2013-05-27 17:37:00,82.2,75.0,29.94,SSE,155,10.0,17.0,79,0.00,,---,0.00,VWS V14.01,2013-05-27 22:37:00,
2013-05-27 17:42:00,82.3,75.1,29.94,SSE,159,12.0,17.0,79,0.00,,---,0.00,VWS V14.01,2013-05-27 22:42:00,
2013-05-27 17:47:00,81.8,75.0,29.94,South,179,5.0,17.0,80,0.00,,---,0.00,VWS V14.01,2013-05-27 22:47:00,
2013-05-27 17:52:00,81.7,75.3,29.94,SE,145,8.0,17.0,81,0.00,,---,0.00,VWS V14.01,2013-05-27 22:52:00,
2013-05-27 17:57:00,81.4,74.6,29.93,SSE,156,9.0,17.0,80,0.00,,---,0.00,VWS V14.01,2013-05-27 22:57:00,
2013-05-27 18:02:00,81.4,74.6,29.93,SSE,149,7.0,14.0,80,0.00,,---,0.00,VWS V14.01,2013-05-27 23:02:00,
2013-05-27 18:07:00,81.4,75.0,29.93,SE,142,11.0,15.0,81,0.00,,---,0.00,VWS V14.01,2013-05-27 23:07:00,
2013-05-27 18:12:00,81.0,74.6,29.93,SE,132,10.0,15.0,81,0.00,,---,0.00,VWS V14.01,2013-05-27 23:12:00,
2013-05-27 18:17:00,81.3,75.3,29.93,SSE,148,6.0,16.0,82,0.00,,---,0.00,VWS V14.01,2013-05-27 23:17:00,
2013-05-27 18:22:00,81.4,75.0,29.93,NE,56,5.0,16.0,81,0.00,,---,0.00,VWS V14.01,2013-05-27 23:22:00,
2013-05-27 18:27:00,81.0,74.6,29.93,SSE,150,9.0,16.0,81,0.00,,---,0.00,VWS V14.01,2013-05-27 23:27:00,
2013-05-27 18:32:00,80.8,74.8,29.93,ESE,115,8.0,16.0,82,0.00,,---,0.00,VWS V14.01,2013-05-27 23:32:00,
2013-05-27 18:37:00,80.8,74.8,29.93,ESE,115,6.0,16.0,82,0.00,,---,0.00,VWS V14.01,2013-05-27 23:37:00,
2013-05-27 18:42:00,80.4,74.4,29.93,South,180,6.0,16.0,82,0.00,,---,0.00,VWS V14.01,2013-05-27 23:42:00,
2013-05-27 18:47:00,80.7,74.7,29.93,SE,133,12.0,16.0,82,0.00,,---,0.00,VWS V14.01,2013-05-27 23:47:00,
2013-05-27 18:52:00,80.8,75.2,29.93,ESE,122,11.0,17.0,83,0.00,,---,0.00,VWS V14.01,2013-05-27 23:52:00,
2013-05-27 18:57:00,80.5,74.5,29.92,SE,129,5.0,17.0,82,0.00,,---,0.00,VWS V14.01,2013-05-27 23:57:00,
2013-05-27 19:02:00,80.4,74.8,29.92,ESE,108,7.0,7.0,83,0.00,,---,0.00,VWS V14.01,2013-05-28 00:02:00,
2013-05-27 19:07:00,80.2,74.6,29.92,ESE,111,9.0,16.0,83,0.00,,---,0.00,VWS V14.01,2013-05-28 00:07:00,
2013-05-27 19:13:00,80.1,74.5,29.92,ESE,120,16.0,18.0,83,0.00,,---,0.00,VWS V14.01,2013-05-28 00:13:00,
2013-05-27 19:18:00,80.0,74.7,29.92,SE,145,8.0,18.0,84,0.00,,---,0.00,VWS V14.01,2013-05-28 00:18:00,
2013-05-27 19:23:00,79.8,74.2,29.92,ESE,111,6.0,20.0,83,0.00,,---,0.00,VWS V14.01,2013-05-28 00:23:00,
2013-05-27 19:28:00,79.9,74.3,29.92,SE,142,9.0,20.0,83,0.00,,---,0.00,VWS V14.01,2013-05-28 00:28:00,
2013-05-27 19:33:00,79.8,74.2,29.92,ESE,110,10.0,20.0,83,0.00,,---,0.00,VWS V14.01,2013-05-28 00:33:00,
2013-05-27 19:38:00,79.6,74.0,29.92,SE,124,13.0,20.0,83,0.00,,---,0.00,VWS V14.01,2013-05-28 00:38:00,
2013-05-27 19:43:00,79.5,73.9,29.92,ESE,120,15.0,20.0,83,0.00,,---,0.00,VWS V14.01,2013-05-28 00:43:00,
2013-05-27 19:48:00,79.6,74.3,29.92,SSE,164,6.0,20.0,84,0.00,,---,0.00,VWS V14.01,2013-05-28 00:48:00,
2013-05-27 19:54:00,79.5,74.2,29.92,ESE,122,10.0,20.0,84,0.00,,---,0.00,VWS V14.01,2013-05-28 00:54:00,
2013-05-27 19:59:00,79.3,74.1,29.92,East,95,10.0,20.0,84,0.00,,---,0.00,VWS V14.01,2013-05-28 00:59:00,
2013-05-27 20:04:00,79.2,73.9,29.92,ESE,103,13.0,15.0,84,0.00,,---,0.00,VWS V14.01,2013-05-28 01:04:00,
2013-05-27 20:09:00,79.1,73.8,29.92,SSE,165,6.0,15.0,84,0.00,,---,0.00,VWS V14.01,2013-05-28 01:09:00,
2013-05-27 20:14:00,79.1,73.8,29.93,SSE,153,3.0,17.0,84,0.00,,---,0.00,VWS V14.01,2013-05-28 01:14:00,
2013-05-27 20:19:00,79.0,73.8,29.93,SE,132,7.0,17.0,84,0.00,,---,0.00,VWS V14.01,2013-05-28 01:19:00,
2013-05-27 20:24:00,79.1,73.8,29.93,SE,145,2.0,17.0,84,0.00,,---,0.00,VWS V14.01,2013-05-28 01:24:00,
2013-05-27 20:29:00,79.0,73.4,29.93,ESE,121,13.0,17.0,83,0.00,,---,0.00,VWS V14.01,2013-05-28 01:29:00,
2013-05-27 20:34:00,79.0,73.4,29.93,SSE,167,6.0,17.0,83,0.00,,---,0.00,VWS V14.01,2013-05-28 01:34:00,
2013-05-27 20:39:00,79.1,73.8,29.93,SSE,149,3.0,17.0,84,0.00,,---,0.00,VWS V14.01,2013-05-28 01:39:00,
2013-05-27 20:44:00,79.1,73.8,29.93,SE,133,7.0,17.0,84,0.00,,---,0.00,VWS V14.01,2013-05-28 01:44:00,
2013-05-27 20:49:00,79.2,73.9,29.93,SE,138,13.0,17.0,84,0.00,,---,0.00,VWS V14.01,2013-05-28 01:49:00,
2013-05-27 20:54:00,79.2,73.9,29.94,SE,145,7.0,17.0,84,0.00,,---,0.00,VWS V14.01,2013-05-28 01:54:00,
2013-05-27 20:59:00,79.2,73.9,29.94,SE,133,6.0,17.0,84,0.00,,---,0.00,VWS V14.01,2013-05-28 01:59:00,
2013-05-27 21:04:00,79.2,73.9,29.94,SSE,150,9.0,15.0,84,0.00,,---,0.00,VWS V14.01,2013-05-28 02:04:00,
2013-05-27 21:09:00,79.2,73.9,29.94,SE,139,8.0,15.0,84,0.00,,---,0.00,VWS V14.01,2013-05-28 02:09:00,
2013-05-27 21:14:00,79.2,73.9,29.94,South,174,6.0,15.0,84,0.00,,---,0.00,VWS V14.01,2013-05-28 02:14:00,
2013-05-27 21:19:00,79.3,74.1,29.94,ESE,117,3.0,16.0,84,0.00,,---,0.00,VWS V14.01,2013-05-28 02:19:00,
2013-05-27 21:24:00,79.2,73.9,29.94,SE,138,7.0,16.0,84,0.00,,---,0.00,VWS V14.01,2013-05-28 02:24:00,
2013-05-27 21:29:00,79.3,74.1,29.94,SSE,159,3.0,16.0,84,0.00,,---,0.00,VWS V14.01,2013-05-28 02:29:00,
2013-05-27 21:34:00,79.2,73.6,29.94,SSE,149,10.0,16.0,83,0.00,,---,0.00,VWS V14.01,2013-05-28 02:34:00,
2013-05-27 21:39:00,79.2,73.9,29.94,SSE,162,11.0,16.0,84,0.00,,---,0.00,VWS V14.01,2013-05-28 02:39:00,
2013-05-27 21:44:00,79.2,73.9,29.94,SSE,147,8.0,16.0,84,0.00,,---,0.00,VWS V14.01,2013-05-28 02:44:00,
2013-05-27 21:49:00,79.2,74.3,29.95,South,181,6.0,16.0,85,0.00,,---,0.00,VWS V14.01,2013-05-28 02:49:00,
2013-05-27 21:54:00,79.1,73.8,29.95,SSE,150,9.0,16.0,84,0.00,,---,0.00,VWS V14.01,2013-05-28 02:54:00,
2013-05-27 21:59:00,79.1,73.8,29.95,East,96,10.0,16.0,84,0.00,,---,0.00,VWS V14.01,2013-05-28 02:59:00,
2013-05-27 22:05:00,79.1,73.8,29.95,SE,129,9.0,13.0,84,0.00,,---,0.00,VWS V14.01,2013-05-28 03:05:00,
2013-05-27 22:10:00,79.0,73.4,29.95,South,190,7.0,15.0,83,0.00,,---,0.00,VWS V14.01,2013-05-28 03:10:00,
2013-05-27 22:15:00,79.2,73.9,29.95,SSE,162,5.0,15.0,84,0.00,,---,0.00,VWS V14.01,2013-05-28 03:15:00,
2013-05-27 22:20:00,79.1,73.8,29.95,SE,127,7.0,15.0,84,0.00,,---,0.00,VWS V14.01,2013-05-28 03:20:00,
2013-05-27 22:25:00,79.0,73.4,29.96,East,85,10.0,15.0,83,0.00,,---,0.00,VWS V14.01,2013-05-28 03:25:00,
2013-05-27 22:30:00,79.1,73.8,29.96,South,171,10.0,15.0,84,0.00,,---,0.00,VWS V14.01,2013-05-28 03:30:00,
2013-05-27 22:35:00,79.0,73.4,29.96,SE,131,8.0,15.0,83,0.00,,---,0.00,VWS V14.01,2013-05-28 03:35:00,
2013-05-27 22:40:00,79.0,73.4,29.96,SE,142,6.0,17.0,83,0.00,,---,0.00,VWS V14.01,2013-05-28 03:40:00,
2013-05-27 22:45:00,79.0,73.8,29.96,ENE,57,3.0,17.0,84,0.00,,---,0.00,VWS V14.01,2013-05-28 03:45:00,
2013-05-27 22:50:00,78.9,73.3,29.96,SW,229,6.0,17.0,83,0.00,,---,0.00,VWS V14.01,2013-05-28 03:50:00,
2013-05-27 22:55:00,78.9,73.7,29.96,SSE,162,7.0,17.0,84,0.00,,---,0.00,VWS V14.01,2013-05-28 03:55:00,
2013-05-27 23:00:00,78.8,73.2,29.97,SSE,149,8.0,17.0,83,0.00,,---,0.00,VWS V14.01,2013-05-28 04:00:00,
2013-05-27 23:01:00,78.8,73.2,29.97,SE,131,8.0,17.0,83,0.00,,---,0.00,VWS V14.01,2013-05-28 04:01:00,
2013-05-27 23:02:00,78.8,73.2,29.96,SSE,159,9.0,17.0,83,0.00,,---,0.00,VWS V14.01,2013-05-28 04:02:00,
2013-05-27 23:07:00,78.8,73.2,29.96,ESE,110,8.0,16.0,83,0.00,,---,0.00,VWS V14.01,2013-05-28 04:07:00,
2013-05-27 23:12:00,78.8,72.8,29.97,SE,141,6.0,16.0,82,0.00,,---,0.00,VWS V14.01,2013-05-28 04:12:00,
2013-05-27 23:17:00,78.8,73.2,29.96,SSE,148,7.0,16.0,83,0.00,,---,0.00,VWS V14.01,2013-05-28 04:17:00,
2013-05-27 23:22:00,78.8,73.2,29.96,East,86,8.0,17.0,83,0.00,,---,0.00,VWS V14.01,2013-05-28 04:22:00,
2013-05-27 23:27:00,78.8,73.2,29.96,ESE,123,9.0,17.0,83,0.00,,---,0.00,VWS V14.01,2013-05-28 04:27:00,
2013-05-27 23:32:00,78.7,73.1,29.96,SSE,147,7.0,17.0,83,0.00,,---,0.00,VWS V14.01,2013-05-28 04:32:00,
2013-05-27 23:37:00,78.7,73.1,29.96,SE,141,8.0,17.0,83,0.00,,---,0.00,VWS V14.01,2013-05-28 04:37:00,
2013-05-27 23:42:00,78.7,73.1,29.96,SSE,147,10.0,17.0,83,0.00,,---,0.00,VWS V14.01,2013-05-28 04:42:00,
2013-05-27 23:47:00,78.7,73.5,29.97,ESE,110,10.0,17.0,84,0.00,,---,0.00,VWS V14.01,2013-05-28 04:47:00,
2013-05-27 23:52:00,78.7,73.5,29.96,SE,145,9.0,17.0,84,0.00,,---,0.00,VWS V14.01,2013-05-28 04:52:00,
2013-05-27 23:57:00,78.6,73.4,29.96,SSE,157,4.0,17.0,84,0.00,,---,0.00,VWS V14.01,2013-05-28 04:57:00,